SCP
1 1 2 2 3 2 2 2 1 1 1 2 2 2 2 1 1 1 1 1 0 0 0 0 0 0 0 0 0 0 0 0 0 0 0 1 1 1
1 1 1 2 3 3 2 2 2 1 2 2 2 2 2 2 1 1 1 1 1 0 0 0 0 0 0 0 0 0 0 0 0 0 0 0 0 1
1 1 1 2 2 3 2 2 2 2 2 2 2 2 2 2 2 2 1 1 1 0 0 0 0 0 0 0 0 0 0 0 0 0 0 0 0 0
1 1 1 2 2 2 2 2 2 2 2 2 2 2 2 2 2 2 1 1 1 0 0 0 0 0 0 0 0 0 0 0 0 0 0 0 0 0
2 2 2 2 2 1 1 1 2 2 2 2 2 2 2 2 2 2 2 1 1 1 0 0 0 0 0 0 0 0 0 0 0 0 0 0 0 0
2 2 2 2 2 1 1 1 2 2 2 2 2 2 2 3 3 3 3 3 2 1 1 0 0 0 0 0 0 0 0 0 0 0 0 0 0 0
2 2 2 1 1 1 1 1 1 2 3 2 2 2 3 4 4 3 4 4 3 2 1 1 1 0 0 0 0 0 0 0 0 0 0 0 0 0
2 2 1 1 1 0 0 0 1 1 2 3 3 3 3 4 4 3 3 3 3 2 2 2 1 1 0 0 0 0 0 0 0 0 0 0 0 0
2 2 1 1 1 1 0 0 0 1 1 2 2 2 2 2 2 2 2 2 2 2 2 1 1 1 1 0 0 0 0 0 0 0 0 0 0 0
1 1 1 1 1 1 1 0 0 0 1 1 1 1 1 1 1 1 1 1 1 1 1 0 0 0 0 0 0 0 0 0 0 0 0 0 0 0
1 1 1 1 0 0 0 1 1 1 0 0 0 0 0 0 0 0 0 0 0 0 0 0 0 0 0 0 0 0 0 0 0 0 0 0 0 0
1 0 0 0 0 0 0 0 1 0 0 0 0 0 0 0 0 0 0 0 0 0 0 0 0 0 0 0 0 0 0 0 0 0 0 0 0 0
0 0 0 0 0 0 0 0 0 0 0 0 0 0 0 0 0 0 0 0 0 0 0 0 0 0 0 0 0 0 0 0 0 0 0 0 0 0
0 0 0 0 0 0 0 0 0 0 0 0 0 0 0 0 0 0 0 0 0 0 0 0 0 0 0 0 0 0 0 0 0 0 0 0 0 0
0 0 0 0 0 0 0 0 0 0 0 0 0 0 0 0 0 0 0 0 0 0 0 0 0 0 0 0 0 0 0 0 0 0 0 0 0 0
0 0 0 0 0 0 0 0 0 0 0 0 0 0 0 0 0 0 0 0 0 0 0 0 0 0 0 0 0 0 0 0 0 0 0 0 0 0
0 0 0 0 0 0 0 0 0 0 0 0 0 0 0 0 0 0 0 0 0 0 0 0 0 0 0 0 0 0 0 0 0 0 0 0 0 0
0 0 0 0 0 0 0 0 0 0 0 0 0 0 0 0 0 0 0 0 0 0 0 0 0 0 0 0 0 0 0 0 0 0 0 0 0 0
0 0 0 0 0 0 0 0 0 0 0 0 0 0 0 0 0 0 0 0 0 0 0 0 0 0 0 0 0 0 0 0 0 0 0 0 0 0
0 0 0 0 0 0 0 0 0 0 0 0 0 0 0 0 0 0 0 0 0 0 0 0 0 0 0 0 0 0 0 0 0 0 0 0 0 0
0 0 0 0 0 0 0 0 0 0 0 0 0 0 0 0 0 0 0 0 0 0 0 0 0 0 0 0 0 0 0 0 0 0 0 0 0 1
0 0 0 0 0 0 0 0 0 0 0 0 0 0 0 0 0 0 0 0 0 0 0 0 0 0 0 0 0 0 0 0 0 0 0 0 0 0
0 0 0 0 0 0 0 0 0 0 0 0 0 0 0 0 0 0 0 0 0 0 0 0 0 0 0 0 0 0 0 0 0 0 0 0 0 0
Wind_Speed
2 2 3 2 2 2 2 3 3 3 1 1 0 1 1 3 4 4 5 10 9 9 8 8 8 8 7 7 6 6 5 4 3 3 2 2 2 2
1 1 2 2 1 1 2 2 2 2 1 0 1 2 3 3 5 4 5 11 11 10 10 10 10 10 10 10 10 9 8 7 6 5 4 3 2 2
2 1 1 2 1 1 1 1 1 1 1 1 2 3 3 3 4 3 3 4 7 11 11 11 12 12 12 11 11 10 10 10 9 8 7 6 5 3
3 3 2 1 1 1 1 0 0 1 2 1 2 2 3 3 3 3 3 4 5 10 10 10 11 11 11 11 10 9 9 9 9 9 8 8 7 6
4 4 4 3 2 2 1 1 1 1 2 2 2 2 2 3 3 3 4 3 4 7 8 9 9 9 9 9 9 8 8 8 8 8 9 9 9 8
6 6 6 5 4 3 2 2 1 2 2 2 3 3 3 3 2 2 2 2 2 3 4 5 7 7 8 8 8 8 7 6 6 7 7 7 8 9
7 7 8 9 10 7 5 4 2 2 2 2 3 2 2 2 1 1 2 2 3 2 1 2 3 3 4 6 7 7 6 6 6 6 7 7 7 7
7 7 7 7 8 9 10 10 8 4 3 2 2 2 2 2 1 0 1 1 1 2 2 2 2 3 3 5 7 6 5 5 5 5 5 5 5 5
7 6 6 7 6 7 8 9 9 8 5 4 4 4 3 2 2 1 2 2 2 2 1 2 2 2 3 6 7 5 4 3 3 3 3 3 3 3
7 7 7 8 8 7 7 9 9 9 8 6 5 5 5 4 2 1 1 2 2 2 1 1 2 2 2 4 7 4 3 2 2 1 1 1 1 1
8 9 8 8 10 8 6 7 7 7 9 9 8 6 6 5 4 1 0 0 1 2 1 1 1 1 1 2 5 6 4 4 3 2 1 0 1 2
7 8 12 10 9 9 6 6 6 6 5 6 5 4 4 5 3 4 3 2 1 1 3 2 1 1 0 1 1 1 3 4 4 3 2 1 3 3
5 6 7 8 8 8 6 6 4 2 3 3 4 4 3 3 3 4 4 4 4 3 3 2 2 2 2 1 1 1 1 1 1 2 4 3 2 4
5 6 6 5 6 6 5 5 4 3 2 2 3 3 3 3 3 3 4 4 4 3 3 3 3 3 3 2 2 1 1 2 2 2 1 4 4 4
6 7 5 2 3 4 4 3 3 2 3 3 3 4 3 4 2 2 2 1 1 2 3 3 3 3 3 3 2 2 2 1 1 2 3 2 1 1
5 6 5 2 2 3 2 1 3 4 4 3 3 3 2 2 3 3 3 2 1 2 2 1 3 4 4 4 3 3 3 2 2 2 3 3 2 1
1 3 2 2 2 2 3 3 3 2 3 3 2 2 2 2 2 3 3 3 3 2 1 1 1 2 3 4 4 4 4 4 3 2 3 4 3 2
1 2 2 2 2 2 2 2 2 3 3 3 2 3 3 2 2 2 3 3 3 3 3 3 3 3 3 1 2 4 4 4 4 3 4 4 3 2
1 2 2 2 2 2 2 2 2 3 3 2 2 2 3 3 3 3 3 3 4 4 3 3 3 4 5 4 1 2 4 5 5 4 4 4 4 3
1 1 1 1 1 2 2 2 2 2 1 2 2 3 3 3 4 4 3 5 5 4 4 3 4 5 6 7 6 3 2 4 4 5 5 5 4 2
1 1 1 1 1 1 2 2 2 2 2 3 2 3 3 4 4 4 4 3 5 5 5 4 3 4 7 6 6 4 2 2 3 5 6 5 5 4
1 1 1 1 1 1 1 1 1 1 1 2 3 3 3 4 4 5 5 5 4 5 6 5 3 4 5 5 6 6 4 3 3 7 6 5 5 6
0 0 0 0 0 1 1 1 2 2 2 3 3 3 4 4 4 4 5 5 5 5 6 5 5 5 5 6 6 6 7 6 4 3 3 6 9 9
Wind_Direction
270 260 261 258 258 257 248 243 248 247 227 151 157 47 66 74 71 76 67 73 71 66 60 56 52 46 41 38 35 32 27 24 24 22 13 354 311 275
312 313 301 306 283 253 255 254 246 243 245 108 70 59 60 80 81 77 80 84 73 70 67 62 59 55 53 51 50 49 48 46 42 35 28 16 357 352
349 341 336 314 301 278 256 248 230 210 193 128 83 80 74 70 81 91 100 92 86 76 74 70 66 62 58 55 53 51 50 47 45 42 40 37 32 26
11 8 353 335 343 327 311 279 119 155 159 144 106 93 93 96 89 82 82 91 97 91 86 79 73 68 63 58 54 51 49 47 46 46 43 41 38 36
29 26 19 19 26 39 19 37 97 123 128 138 122 97 98 91 92 84 78 62 87 112 110 98 87 79 72 65 60 54 51 48 47 46 45 45 42 40
47 40 33 31 30 35 51 48 76 108 111 122 119 113 107 93 84 88 94 84 64 76 85 100 113 107 86 73 63 57 54 53 55 53 50 50 51 51
59 53 53 52 46 36 33 36 47 70 99 108 108 107 94 94 88 103 96 101 84 45 49 84 110 97 99 86 68 56 57 59 59 58 55 54 54 54
64 63 69 64 69 67 62 54 43 45 63 80 90 94 85 82 72 41 69 59 79 55 12 48 46 59 65 65 66 66 64 63 59 57 57 57 55 52
61 56 56 58 57 72 80 81 67 54 43 43 64 53 63 52 26 59 56 38 40 48 24 56 54 50 68 80 87 82 76 70 65 63 63 60 56 50
63 59 60 55 45 44 68 70 65 57 51 55 55 44 44 36 36 67 107 140 136 95 16 10 57 50 58 94 115 110 111 103 92 89 96 96 77 48
65 55 52 61 30 17 64 72 76 83 80 74 67 72 62 37 358 347 44 174 110 108 59 330 29 39 68 99 129 152 154 155 156 156 160 195 242 232
82 74 56 45 33 17 57 66 67 65 74 93 94 105 88 77 38 3 351 345 357 79 69 325 341 332 26 59 44 139 157 161 176 178 184 239 297 287
84 79 67 47 42 29 35 56 42 16 75 84 90 86 79 67 56 44 12 356 358 23 35 330 330 338 335 342 351 359 4 26 170 172 187 200 255 295
77 78 78 60 57 44 47 32 335 303 69 73 66 59 50 46 54 49 36 24 15 15 9 345 332 331 316 319 334 341 342 345 339 337 354 172 207 221
75 74 84 105 129 98 67 349 320 20 48 54 51 46 42 36 30 69 90 90 85 46 42 351 328 325 311 316 317 322 319 326 321 315 316 317 308 249
113 125 143 123 88 81 112 63 43 30 16 38 43 41 36 35 17 7 0 358 7 80 90 357 328 318 313 326 317 324 330 324 315 319 321 310 299 302
126 141 127 119 100 79 68 48 29 35 24 19 21 27 23 20 17 11 352 336 340 352 25 2 320 301 304 307 317 328 323 316 319 331 299 298 304 317
287 113 94 71 60 57 46 51 41 26 10 7 10 7 358 350 352 353 342 337 336 341 348 344 327 310 287 212 316 313 311 311 313 308 296 296 300 313
196 92 78 61 42 37 32 23 26 32 351 345 355 355 345 336 338 338 336 334 330 336 337 334 330 324 315 319 169 256 313 317 314 313 309 306 304 314
98 78 79 67 44 20 21 12 5 8 341 333 348 350 343 337 338 335 339 345 327 321 323 334 343 336 322 320 320 310 238 304 315 311 311 304 300 288
103 81 48 35 35 32 11 356 349 353 352 326 340 340 335 331 335 331 335 346 309 315 323 334 355 296 287 290 296 308 319 208 258 291 305 304 307 296
82 87 56 14 5 359 346 328 325 345 330 308 330 327 325 323 326 321 325 323 319 323 324 326 328 306 304 308 310 315 319 307 242 227 245 269 303 310
113 77 115 252 281 304 314 318 319 333 334 328 329 328 327 326 322 321 321 319 323 325 319 317 319 315 315 314 314 315 317 314 310 289 260 215 225 240